Starlink 2720

operational
NORAD ID: 48653 Int'l Des: 2021-044 Owner: SPXS Country: US Constellation: starlink
LEOCIRCULARSTARLINK_TYPE

Über Starlink 2720

Beschreibung wird geladen...

Live-Position

3D-Globus wird geladen...

Nächste Überflüge

Höhenverlauf

Altitude vs Time

uPlot chart will show altitude changes over time

Zweizeiliger Elementsatz

1 48653U 21044R 25258.19204180 -.00000966 00000-0 -45942-4 0 9995
2 48653 53.0566 189.4606 0001847 96.9003 263.2196 15.06398910237254
Epoch: 15. Sept. 2025 • Age: 21 hours

Aktueller Status

Höhe 547.8 km
Geschwindigkeit 7.59 km/s
Subsatellitenpunkt 26.28°N, 169.88°W
Startdatum 26. Mai 2021
Alter 4.3 years
Typ internet

Technische Details

Klassifizierung Payload
Masse 260.00 kg
Trockenmasse 248.00 kg
Gesamtmasse 260.00 kg
Länge 0.20 m
Durchmesser 2.80 m
Spannweite 9.00 m
Form Box + pan
Hersteller SPXS
Bus-Typ Starlink
Phasenstatus In Orbit
Besitzer/Staat SPXS/US

Große Konstellationen

Loading constellations...